QPF
0.00 0.00 0.00 0.00 0.00 0.00 0.00 0.00 0.00 0.00 0.00 0.00 0.00 0.00 0.00 0.00 0.00 0.00 0.00 0.00 0.00 0.00 0.00 0.00 0.00 0.00 0.00 0.00 0.00 0.00 0.00 0.00 0.00 0.00 0.00 0.00 0.00 0.00 0.00 0.00 0.00 0.00
0.00 0.00 0.00 0.00 0.00 0.00 0.00 0.00 0.00 0.00 0.00 0.00 0.00 0.00 0.00 0.00 0.00 0.00 0.00 0.00 0.00 0.00 0.00 0.00 0.00 0.00 0.00 0.00 0.00 0.00 0.00 0.00 0.00 0.00 0.00 0.00 0.00 0.00 0.00 0.00 0.00 0.00
0.00 0.00 0.00 0.00 0.00 0.00 0.00 0.00 0.00 0.00 0.00 0.00 0.00 0.00 0.00 0.00 0.00 0.00 0.00 0.00 0.00 0.00 0.00 0.00 0.00 0.00 0.00 0.00 0.00 0.00 0.00 0.00 0.00 0.00 0.00 0.00 0.00 0.00 0.00 0.00 0.00 0.00
0.00 0.00 0.00 0.00 0.00 0.00 0.00 0.00 0.00 0.00 0.00 0.00 0.00 0.00 0.00 0.00 0.00 0.00 0.00 0.00 0.00 0.00 0.00 0.00 0.00 0.00 0.00 0.00 0.00 0.00 0.00 0.00 0.00 0.00 0.00 0.00 0.00 0.00 0.00 0.00 0.00 0.00
0.00 0.00 0.00 0.00 0.00 0.00 0.00 0.00 0.00 0.00 0.00 0.00 0.00 0.00 0.00 0.00 0.00 0.00 0.00 0.00 0.00 0.00 0.00 0.00 0.00 0.00 0.00 0.00 0.00 0.00 0.00 0.00 0.00 0.00 0.00 0.00 0.00 0.00 0.00 0.00 0.00 0.00
0.00 0.00 0.00 0.00 0.00 0.00 0.00 0.00 0.00 0.00 0.00 0.00 0.00 0.00 0.00 0.00 0.00 0.00 0.00 0.00 0.00 0.00 0.00 0.00 0.00 0.00 0.00 0.00 0.00 0.00 0.00 0.00 0.00 0.00 0.00 0.00 0.00 0.00 0.00 0.00 0.00 0.00
0.00 0.00 0.00 0.00 0.00 0.00 0.00 0.00 0.00 0.00 0.00 0.00 0.00 0.00 0.00 0.00 0.00 0.00 0.00 0.00 0.00 0.00 0.00 0.00 0.00 0.00 0.00 0.00 0.00 0.00 0.00 0.00 0.00 0.00 0.00 0.00 0.00 0.00 0.00 0.00 0.00 0.00
0.00 0.00 0.00 0.00 0.00 0.00 0.00 0.00 0.00 0.00 0.00 0.00 0.00 0.00 0.00 0.00 0.00 0.00 0.00 0.00 0.00 0.00 0.00 0.00 0.00 0.00 0.00 0.00 0.00 0.00 0.00 0.00 0.00 0.00 0.00 0.00 0.00 0.00 0.00 0.00 0.00 0.00
0.00 0.00 0.00 0.00 0.00 0.00 0.00 0.00 0.00 0.00 0.00 0.00 0.00 0.00 0.00 0.00 0.00 0.00 0.00 0.00 0.00 0.00 0.00 0.00 0.00 0.00 0.00 0.00 0.00 0.00 0.00 0.00 0.00 0.00 0.00 0.00 0.00 0.00 0.00 0.00 0.00 0.00
0.00 0.00 0.00 0.00 0.00 0.00 0.00 0.00 0.00 0.00 0.00 0.00 0.00 0.00 0.00 0.00 0.00 0.00 0.00 0.00 0.00 0.00 0.00 0.00 0.00 0.00 0.00 0.00 0.00 0.00 0.00 0.00 0.00 0.00 0.00 0.00 0.00 0.00 0.00 0.00 0.00 0.00
0.00 0.00 0.00 0.00 0.00 0.00 0.00 0.00 0.00 0.00 0.00 0.00 0.00 0.00 0.00 0.00 0.00 0.00 0.00 0.00 0.00 0.00 0.00 0.00 0.00 0.00 0.00 0.00 0.00 0.00 0.00 0.00 0.00 0.00 0.00 0.00 0.00 0.00 0.00 0.00 0.00 0.00
0.00 0.00 0.00 0.00 0.00 0.00 0.00 0.00 0.00 0.00 0.00 0.00 0.00 0.00 0.00 0.00 0.00 0.00 0.00 0.00 0.00 0.00 0.00 0.00 0.00 0.00 0.00 0.00 0.00 0.00 0.00 0.00 0.00 0.00 0.00 0.00 0.00 0.00 0.00 0.00 0.00 0.00
0.00 0.00 0.00 0.00 0.00 0.00 0.00 0.00 0.00 0.00 0.00 0.00 0.00 0.00 0.00 0.00 0.00 0.00 0.00 0.00 0.00 0.00 0.00 0.00 0.00 0.00 0.00 0.00 0.00 0.00 0.00 0.00 0.00 0.00 0.00 0.00 0.00 0.00 0.00 0.00 0.00 0.00
0.00 0.00 0.00 0.00 0.00 0.00 0.00 0.00 0.00 0.00 0.00 0.00 0.00 0.00 0.00 0.00 0.00 0.00 0.00 0.00 0.00 0.00 0.00 0.00 0.00 0.00 0.00 0.00 0.00 0.00 0.00 0.00 0.00 0.00 0.00 0.00 0.00 0.00 0.00 0.00 0.00 0.00
0.00 0.00 0.00 0.00 0.00 0.00 0.00 0.00 0.00 0.00 0.00 0.00 0.00 0.00 0.00 0.00 0.00 0.00 0.00 0.00 0.00 0.00 0.00 0.00 0.00 0.00 0.00 0.00 0.00 0.00 0.00 0.00 0.00 0.00 0.00 0.00 0.00 0.00 0.00 0.00 0.00 0.00
0.00 0.00 0.00 0.00 0.00 0.00 0.00 0.00 0.00 0.00 0.00 0.00 0.00 0.00 0.00 0.00 0.00 0.00 0.00 0.00 0.00 0.00 0.00 0.00 0.00 0.00 0.00 0.00 0.00 0.00 0.00 0.00 0.00 0.00 0.00 0.00 0.00 0.00 0.00 0.00 0.00 0.00
0.00 0.00 0.00 0.00 0.00 0.00 0.00 0.00 0.00 0.00 0.00 0.00 0.00 0.00 0.00 0.00 0.00 0.00 0.00 0.00 0.00 0.00 0.00 0.00 0.00 0.00 0.00 0.00 0.00 0.00 0.00 0.00 0.00 0.00 0.00 0.00 0.00 0.00 0.00 0.00 0.00 0.00
0.00 0.00 0.00 0.00 0.00 0.00 0.00 0.00 0.00 0.00 0.00 0.00 0.00 0.00 0.00 0.00 0.00 0.00 0.00 0.00 0.00 0.00 0.00 0.00 0.00 0.00 0.00 0.00 0.00 0.00 0.00 0.00 0.00 0.00 0.00 0.00 0.00 0.00 0.00 0.00 0.00 0.00
0.00 0.00 0.00 0.00 0.00 0.00 0.00 0.00 0.00 0.00 0.00 0.00 0.00 0.00 0.00 0.00 0.00 0.00 0.00 0.00 0.00 0.00 0.00 0.00 0.00 0.00 0.00 0.00 0.00 0.00 0.00 0.00 0.00 0.00 0.00 0.00 0.00 0.00 0.00 0.00 0.00 0.00
0.00 0.00 0.00 0.00 0.00 0.00 0.00 0.00 0.00 0.00 0.00 0.00 0.00 0.00 0.00 0.00 0.00 0.00 0.00 0.00 0.00 0.00 0.00 0.00 0.00 0.00 0.00 0.00 0.00 0.00 0.00 0.00 0.00 0.00 0.00 0.00 0.00 0.00 0.00 0.00 0.00 0.01
0.00 0.00 0.00 0.00 0.00 0.00 0.00 0.00 0.00 0.00 0.00 0.00 0.00 0.00 0.00 0.00 0.00 0.00 0.00 0.00 0.00 0.00 0.00 0.00 0.00 0.00 0.00 0.00 0.00 0.00 0.00 0.00 0.00 0.00 0.00 0.00 0.00 0.00 0.00 0.00 0.00 0.00
0.00 0.00 0.00 0.00 0.00 0.00 0.00 0.00 0.00 0.00 0.00 0.00 0.00 0.00 0.00 0.00 0.00 0.00 0.00 0.00 0.00 0.00 0.00 0.00 0.00 0.00 0.00 0.00 0.00 0.00 0.00 0.00 0.00 0.00 0.00 0.00 0.00 0.00 0.00 0.00 0.00 0.00
0.00 0.00 0.00 0.00 0.00 0.00 0.00 0.00 0.00 0.00 0.00 0.00 0.00 0.00 0.00 0.00 0.00 0.00 0.00 0.00 0.00 0.00 0.00 0.00 0.00 0.00 0.00 0.00 0.00 0.00 0.00 0.00 0.00 0.00 0.00 0.00 0.00 0.00 0.00 0.00 0.00 0.01
0.00 0.00 0.00 0.00 0.00 0.00 0.00 0.00 0.00 0.00 0.00 0.00 0.00 0.00 0.00 0.00 0.00 0.00 0.00 0.00 0.00 0.00 0.00 0.00 0.00 0.00 0.00 0.00 0.00 0.00 0.00 0.00 0.00 0.00 0.00 0.00 0.00 0.00 0.00 0.00 0.00 0.00
0.00 0.00 0.00 0.00 0.00 0.00 0.00 0.00 0.00 0.00 0.00 0.00 0.00 0.00 0.00 0.00 0.00 0.00 0.00 0.00 0.00 0.00 0.00 0.00 0.00 0.00 0.00 0.00 0.00 0.00 0.00 0.00 0.00 0.00 0.00 0.00 0.00 0.00 0.00 0.00 0.00 0.00
0.00 0.00 0.00 0.00 0.00 0.00 0.00 0.00 0.00 0.00 0.00 0.00 0.00 0.00 0.00 0.00 0.00 0.00 0.00 0.00 0.00 0.00 0.00 0.00 0.00 0.00 0.00 0.00 0.00 0.00 0.00 0.00 0.00 0.00 0.00 0.00 0.00 0.00 0.00 0.00 0.00 0.00
MSLP
1012.36 1012.60 1012.96 1013.24 1013.40 1013.48 1013.76 1014.12 1014.20 1014.52 1014.68 1014.76 1015.08 1015.16 1015.28 1015.28 1015.44 1015.68 1015.88 1016.12 1016.32 1016.52 1016.64 1016.92 1017.00 1017.28 1017.48 1017.76 1018.00 1018.24 1018.44 1018.68 1018.84 1018.92 1019.16 1019.36 1019.56 1019.76 1020.04 1020.16 1020.32 1020.40
1011.96 1012.16 1012.44 1012.72 1013.04 1013.12 1013.28 1013.40 1013.76 1014.04 1014.28 1014.40 1014.40 1014.52 1014.64 1014.88 1015.08 1015.32 1015.64 1015.84 1016.00 1016.20 1016.32 1016.60 1016.72 1016.96 1017.20 1017.52 1017.80 1018.12 1018.32 1018.52 1018.80 1018.60 1019.04 1019.28 1019.44 1019.56 1019.76 1019.88 1020.08 1020.12
1011.56 1011.88 1012.16 1012.44 1012.56 1012.68 1012.80 1013.00 1013.28 1013.56 1013.80 1013.88 1014.00 1014.20 1014.36 1014.44 1014.80 1014.96 1015.20 1015.44 1015.72 1015.84 1016.12 1016.24 1016.48 1016.68 1016.88 1017.16 1017.48 1017.80 1018.04 1018.32 1018.60 1018.48 1018.76 1019.08 1019.16 1019.44 1019.48 1019.60 1019.84 1020.08
1011.12 1011.24 1011.48 1011.72 1011.92 1012.20 1012.40 1012.76 1013.04 1013.24 1013.40 1013.76 1013.88 1013.80 1013.96 1014.08 1014.36 1014.68 1014.92 1015.16 1015.40 1015.60 1015.68 1015.88 1016.12 1016.28 1016.56 1016.84 1017.16 1017.48 1017.64 1017.92 1018.00 1018.20 1018.60 1018.76 1018.92 1019.08 1019.28 1019.44 1019.68 1019.88
1010.60 1010.84 1011.04 1011.24 1011.40 1011.64 1012.00 1012.44 1012.68 1012.88 1013.08 1013.16 1013.28 1013.48 1013.76 1013.96 1014.20 1014.40 1014.64 1014.88 1015.04 1015.28 1015.40 1015.60 1015.76 1016.00 1016.20 1016.52 1016.84 1017.20 1017.36 1017.64 1017.76 1018.00 1018.36 1018.64 1018.68 1018.88 1019.00 1019.24 1019.60 1019.84
1010.12 1010.32 1010.56 1010.84 1011.08 1011.40 1011.72 1011.96 1012.16 1012.36 1012.60 1012.88 1013.00 1013.04 1013.28 1013.52 1013.84 1014.04 1014.24 1014.48 1014.60 1014.80 1015.00 1015.12 1015.40 1015.60 1015.80 1016.16 1016.52 1016.80 1017.00 1017.28 1017.40 1017.72 1018.08 1018.32 1018.40 1018.52 1018.72 1019.00 1019.36 1019.64
1009.72 1009.96 1010.24 1010.40 1010.72 1010.92 1011.28 1011.52 1011.72 1011.92 1012.12 1012.20 1012.44 1012.76 1012.84 1013.20 1013.48 1013.64 1013.80 1013.96 1014.16 1014.36 1014.52 1014.72 1015.00 1015.28 1015.44 1015.76 1016.20 1016.52 1016.68 1016.88 1017.08 1017.40 1017.76 1017.96 1018.12 1018.44 1018.48 1018.76 1019.04 1019.32
1009.12 1009.36 1009.68 1009.96 1010.36 1010.60 1010.92 1011.12 1011.32 1011.52 1011.64 1011.92 1012.24 1012.28 1012.40 1012.68 1012.92 1013.08 1013.32 1013.52 1013.80 1013.96 1014.12 1014.20 1014.48 1014.80 1015.00 1015.36 1015.84 1016.20 1016.48 1016.56 1016.84 1017.12 1017.44 1017.68 1017.84 1018.24 1018.36 1018.44 1018.68 1018.96
1008.56 1008.92 1009.16 1009.56 1009.96 1010.16 1010.40 1010.60 1010.76 1011.00 1011.12 1011.52 1011.72 1011.84 1011.92 1012.16 1012.40 1012.60 1012.84 1013.08 1013.36 1013.52 1013.68 1013.88 1014.08 1014.40 1014.60 1014.92 1015.32 1015.68 1016.04 1016.24 1016.32 1016.64 1017.00 1017.32 1017.60 1017.76 1017.88 1018.04 1018.36 1018.56
1008.16 1008.32 1008.72 1009.00 1009.40 1009.56 1009.84 1009.92 1010.08 1010.36 1010.52 1010.88 1011.12 1011.28 1011.56 1011.68 1011.84 1012.08 1012.36 1012.68 1012.96 1013.16 1013.28 1013.44 1013.68 1013.96 1014.24 1014.48 1014.80 1015.12 1015.48 1015.80 1016.00 1016.24 1016.44 1016.68 1016.92 1017.16 1017.36 1017.60 1017.84 1018.12
1007.64 1007.88 1008.24 1008.52 1008.72 1008.88 1009.16 1009.32 1009.52 1009.72 1009.92 1010.28 1010.56 1010.84 1010.96 1011.20 1011.48 1011.60 1011.96 1012.24 1012.52 1012.68 1012.84 1013.00 1013.16 1013.44 1013.80 1014.08 1014.28 1014.48 1014.84 1015.20 1015.52 1015.80 1016.04 1016.20 1016.36 1016.56 1016.72 1016.92 1017.20 1017.36
1007.00 1007.32 1007.60 1007.84 1008.08 1008.28 1008.48 1008.68 1008.88 1009.12 1009.36 1009.60 1009.84 1010.24 1010.40 1010.56 1010.92 1011.12 1011.36 1011.68 1011.88 1012.04 1012.16 1012.36 1012.60 1012.88 1013.24 1013.52 1013.76 1014.04 1014.40 1014.72 1015.00 1015.32 1015.56 1015.76 1015.92 1016.04 1016.16 1016.24 1016.48 1016.68
1006.28 1006.56 1006.76 1007.12 1007.48 1007.68 1007.84 1008.08 1008.32 1008.48 1008.72 1008.96 1009.12 1009.48 1009.88 1010.12 1010.24 1010.64 1010.80 1011.08 1011.32 1011.48 1011.68 1011.84 1012.12 1012.40 1012.72 1013.04 1013.32 1013.60 1014.00 1014.36 1014.64 1014.92 1015.16 1015.36 1015.44 1015.48 1015.52 1015.64 1015.84 1016.04
1005.44 1005.68 1006.12 1006.44 1006.72 1007.04 1007.32 1007.44 1007.64 1007.88 1008.12 1008.32 1008.56 1008.96 1009.24 1009.48 1009.76 1010.04 1010.24 1010.48 1010.72 1010.96 1011.08 1011.28 1011.64 1012.00 1012.28 1012.56 1012.80 1013.12 1013.56 1013.96 1014.20 1014.48 1014.76 1014.96 1015.04 1015.08 1015.08 1015.16 1015.32 1015.44
1004.80 1005.24 1005.56 1006.00 1006.32 1006.68 1006.92 1007.16 1007.32 1007.52 1007.72 1007.92 1008.16 1008.40 1008.56 1008.76 1009.00 1009.32 1009.72 1010.04 1010.24 1010.44 1010.68 1010.84 1011.16 1011.44 1011.64 1011.96 1012.44 1012.80 1013.04 1013.48 1013.76 1014.04 1014.28 1014.56 1014.72 1014.76 1014.76 1014.84 1014.88 1014.88
1004.32 1004.76 1005.12 1005.48 1005.92 1006.24 1006.44 1006.72 1006.96 1007.16 1007.32 1007.60 1007.76 1007.92 1008.16 1008.36 1008.60 1008.80 1009.08 1009.48 1009.84 1010.04 1010.24 1010.40 1010.60 1010.68 1010.92 1011.44 1011.76 1012.12 1012.56 1012.88 1013.20 1013.52 1013.76 1014.00 1014.36 1014.52 1014.52 1014.48 1014.40 1014.28
1004.00 1004.36 1004.72 1005.16 1005.32 1005.64 1005.88 1006.24 1006.48 1006.68 1006.92 1007.12 1007.32 1007.52 1007.76 1008.00 1008.20 1008.52 1008.72 1008.88 1009.20 1009.52 1009.80 1009.84 1009.92 1009.96 1010.56 1011.16 1011.52 1011.80 1012.08 1012.36 1012.72 1013.04 1013.24 1013.56 1013.80 1014.08 1014.20 1014.08 1013.92 1013.84
1003.44 1003.84 1004.24 1004.48 1004.84 1005.12 1005.32 1005.60 1005.88 1006.16 1006.40 1006.60 1006.84 1007.16 1007.28 1007.48 1007.88 1008.08 1008.28 1008.44 1008.64 1008.84 1009.08 1009.20 1009.28 1009.48 1010.28 1010.76 1011.20 1011.52 1011.76 1011.92 1012.16 1012.52 1012.80 1013.08 1013.24 1013.44 1013.52 1013.52 1013.56 1013.60
1002.96 1003.40 1003.68 1004.00 1004.16 1004.40 1004.76 1005.08 1005.40 1005.64 1005.84 1006.08 1006.36 1006.44 1006.84 1007.20 1007.32 1007.60 1007.80 1007.92 1008.12 1008.40 1008.56 1008.56 1008.72 1009.04 1009.80 1010.32 1010.80 1011.20 1011.52 1011.72 1011.72 1011.92 1012.28 1012.56 1012.68 1012.80 1012.92 1013.04 1013.12 1013.40
1002.40 1002.76 1003.08 1003.20 1003.44 1003.88 1004.20 1004.56 1004.84 1005.04 1005.08 1005.28 1005.64 1006.04 1006.32 1006.52 1006.72 1007.00 1007.16 1007.40 1007.52 1007.76 1008.08 1008.04 1008.16 1008.48 1009.20 1009.80 1010.28 1010.72 1011.12 1011.48 1011.40 1011.56 1011.72 1011.92 1012.08 1012.24 1012.36 1012.48 1012.64 1012.96
1001.80 1002.08 1002.40 1002.72 1003.04 1003.36 1003.76 1004.08 1004.28 1004.48 1004.76 1004.88 1005.12 1005.44 1005.72 1005.96 1006.12 1006.48 1006.56 1006.68 1006.92 1007.16 1007.48 1007.64 1007.60 1008.04 1008.64 1009.20 1009.72 1010.20 1010.68 1011.16 1011.08 1011.16 1011.32 1011.48 1011.52 1011.64 1011.80 1011.96 1012.12 1012.36
1001.20 1001.60 1001.96 1002.32 1002.68 1003.04 1003.44 1003.68 1003.84 1003.96 1004.20 1004.32 1004.60 1004.68 1004.80 1005.08 1005.32 1005.44 1005.68 1005.96 1006.12 1006.52 1006.72 1006.96 1006.88 1007.48 1007.96 1008.56 1009.12 1009.72 1010.28 1010.80 1010.76 1010.84 1010.96 1011.04 1011.16 1011.24 1011.40 1011.48 1011.64 1012.00
1000.72 1001.20 1001.60 1001.92 1002.24 1002.68 1002.96 1003.08 1003.28 1003.40 1003.56 1003.68 1004.16 1004.16 1004.36 1004.52 1004.52 1004.60 1004.80 1005.16 1005.52 1005.80 1006.04 1006.16 1006.28 1006.80 1007.48 1008.08 1008.64 1009.20 1010.00 1010.16 1010.32 1010.44 1010.52 1010.64 1010.72 1010.76 1010.92 1011.12 1011.36 1011.64
999.84 1000.28 1000.80 1001.20 1001.56 1001.84 1001.96 1002.12 1002.28 1002.56 1002.84 1002.88 1003.32 1003.64 1003.88 1003.64 1003.72 1004.12 1004.16 1004.24 1004.60 1004.88 1004.92 1005.40 1005.56 1006.00 1006.72 1007.36 1007.92 1008.56 1009.00 1009.32 1009.60 1009.80 1009.96 1010.16 1010.32 1010.36 1010.52 1010.80 1011.00 1011.40
999.28 999.84 1000.36 1000.72 1001.00 1001.00 1001.24 1001.72 1001.96 1002.08 1002.20 1002.52 1002.76 1002.96 1003.04 1003.08 1003.44 1003.64 1003.64 1003.68 1003.68 1003.80 1004.28 1004.84 1004.88 1005.56 1006.12 1006.60 1007.28 1007.88 1008.40 1008.52 1008.84 1009.16 1009.64 1009.76 1009.88 1010.12 1010.24 1010.56 1010.80 1011.16
998.80 999.40 999.80 1000.12 1000.28 1000.40 1000.60 1000.80 1001.00 1001.48 1001.76 1001.88 1002.08 1002.32 1002.64 1002.80 1003.04 1003.16 1003.28 1003.12 1003.20 1003.80 1004.04 1004.12 1004.56 1004.92 1005.72 1006.20 1006.72 1007.20 1007.48 1007.68 1008.00 1008.64 1009.08 1009.16 1009.28 1009.60 1010.16 1010.40 1010.52 1010.84
Thickness
5815 5814 5813 5812 5810 5810 5809 5808 5807 5805 5803 5802 5801 5801 5801 5800 5799 5797 5796 5794 5793 5791 5790 5788 5787 5785 5783 5780 5777 5775 5773 5771 5768 5766 5764 5761 5759 5756 5754 5752 5750 5748
5817 5816 5815 5813 5812 5812 5812 5810 5809 5807 5805 5804 5804 5804 5804 5802 5801 5799 5797 5795 5794 5793 5792 5790 5788 5787 5784 5782 5779 5776 5774 5771 5769 5767 5765 5761 5759 5757 5755 5752 5750 5748
5818 5817 5816 5815 5814 5813 5812 5811 5810 5808 5807 5806 5805 5805 5805 5804 5802 5801 5799 5797 5795 5794 5793 5792 5790 5789 5786 5784 5781 5778 5775 5772 5770 5769 5766 5762 5760 5758 5756 5754 5751 5748
5819 5819 5819 5817 5817 5815 5813 5812 5809 5808 5807 5806 5806 5806 5806 5805 5803 5802 5800 5798 5796 5795 5795 5793 5792 5790 5788 5786 5783 5780 5778 5775 5772 5770 5766 5763 5762 5759 5757 5755 5752 5749
5821 5820 5820 5819 5818 5816 5814 5812 5810 5809 5808 5807 5807 5807 5806 5805 5803 5802 5801 5799 5798 5796 5796 5795 5793 5792 5790 5788 5785 5782 5779 5776 5775 5772 5767 5764 5763 5761 5759 5756 5752 5749
5823 5822 5821 5819 5819 5817 5815 5814 5812 5811 5810 5808 5808 5808 5808 5806 5804 5803 5802 5801 5800 5798 5797 5797 5795 5794 5792 5789 5786 5784 5781 5779 5777 5773 5769 5766 5764 5762 5761 5757 5753 5750
5825 5824 5822 5821 5820 5818 5816 5815 5813 5812 5811 5810 5809 5809 5809 5807 5805 5805 5804 5803 5801 5800 5799 5799 5797 5795 5793 5791 5788 5785 5783 5781 5779 5775 5771 5768 5766 5763 5761 5758 5755 5752
5827 5826 5824 5822 5820 5819 5817 5816 5814 5814 5813 5811 5811 5811 5811 5809 5808 5807 5806 5804 5803 5801 5801 5800 5799 5797 5795 5793 5790 5787 5785 5783 5781 5778 5773 5770 5767 5764 5762 5760 5757 5754
5829 5828 5826 5824 5822 5820 5819 5818 5817 5816 5814 5813 5813 5812 5813 5812 5810 5809 5807 5806 5804 5802 5803 5802 5800 5798 5797 5795 5792 5789 5787 5785 5783 5780 5776 5773 5770 5767 5765 5763 5759 5757
5831 5830 5828 5826 5824 5822 5821 5820 5820 5818 5817 5816 5815 5814 5814 5813 5812 5811 5809 5807 5805 5804 5803 5803 5802 5800 5798 5796 5795 5792 5790 5787 5785 5782 5779 5777 5774 5770 5768 5766 5762 5760
5833 5832 5829 5828 5826 5825 5824 5822 5822 5821 5820 5819 5817 5816 5816 5815 5813 5812 5811 5809 5807 5806 5805 5805 5804 5802 5799 5797 5796 5795 5792 5789 5786 5784 5782 5780 5777 5774 5771 5769 5767 5764
5836 5834 5832 5830 5829 5827 5826 5825 5825 5824 5823 5822 5820 5818 5817 5816 5814 5813 5812 5811 5809 5808 5808 5806 5806 5804 5801 5799 5798 5796 5794 5790 5788 5786 5783 5781 5779 5777 5774 5773 5771 5769
5840 5838 5836 5834 5832 5830 5829 5828 5828 5827 5826 5825 5823 5821 5818 5817 5816 5815 5814 5813 5811 5810 5810 5809 5807 5805 5803 5801 5799 5798 5795 5791 5789 5787 5784 5782 5781 5779 5777 5776 5774 5772
5845 5842 5840 5838 5835 5833 5832 5831 5830 5829 5828 5827 5826 5824 5821 5820 5818 5817 5816 5815 5813 5813 5812 5810 5808 5806 5805 5803 5801 5798 5795 5792 5790 5788 5785 5783 5781 5780 5779 5778 5776 5775
5848 5844 5842 5840 5837 5835 5834 5832 5831 5830 5829 5828 5827 5826 5824 5823 5821 5819 5817 5816 5815 5814 5813 5812 5810 5808 5808 5805 5802 5799 5796 5793 5791 5790 5787 5784 5782 5781 5780 5779 5778 5777
5848 5846 5844 5841 5839 5837 5836 5834 5833 5831 5831 5829 5828 5827 5826 5824 5823 5821 5820 5818 5816 5815 5814 5813 5812 5812 5810 5807 5803 5801 5797 5794 5792 5791 5789 5787 5784 5782 5780 5779 5780 5780
5850 5848 5845 5843 5841 5839 5838 5836 5835 5833 5833 5832 5830 5829 5827 5826 5824 5822 5821 5820 5818 5816 5815 5815 5815 5815 5810 5806 5803 5800 5797 5795 5793 5791 5790 5788 5785 5782 5781 5781 5781 5782
5852 5850 5847 5845 5844 5842 5841 5839 5838 5836 5835 5834 5833 5831 5829 5828 5826 5823 5822 5821 5820 5818 5818 5818 5818 5815 5810 5805 5802 5800 5797 5796 5794 5792 5790 5789 5787 5785 5783 5783 5782 5781
5854 5852 5849 5848 5848 5846 5844 5842 5840 5839 5839 5837 5836 5834 5832 5830 5828 5826 5825 5823 5822 5821 5819 5819 5819 5816 5810 5806 5803 5799 5796 5794 5794 5792 5791 5790 5789 5787 5785 5784 5783 5779
5856 5855 5853 5852 5851 5849 5846 5844 5842 5842 5841 5840 5838 5835 5833 5832 5830 5829 5827 5826 5825 5822 5820 5820 5820 5817 5811 5806 5803 5799 5795 5792 5792 5792 5791 5791 5790 5789 5787 5785 5783 5780
5859 5858 5856 5854 5852 5849 5847 5845 5844 5844 5843 5842 5840 5839 5837 5836 5834 5832 5831 5830 5829 5825 5823 5822 5821 5818 5813 5808 5804 5800 5795 5791 5790 5791 5790 5790 5790 5789 5788 5786 5784 5781
5861 5859 5857 5855 5852 5849 5847 5846 5845 5845 5845 5843 5842 5841 5840 5839 5837 5837 5835 5833 5831 5828 5825 5825 5824 5820 5815 5810 5805 5800 5794 5790 5789 5790 5790 5790 5789 5788 5788 5786 5784 5780
5863 5860 5857 5855 5852 5849 5848 5848 5848 5847 5847 5845 5843 5841 5841 5841 5841 5840 5839 5837 5833 5831 5829 5828 5827 5822 5816 5812 5806 5800 5794 5790 5789 5790 5790 5789 5788 5789 5787 5785 5783 5779
5866 5863 5859 5856 5854 5853 5852 5851 5850 5848 5847 5846 5844 5842 5842 5844 5843 5841 5840 5839 5837 5835 5833 5831 5828 5824 5819 5814 5808 5801 5796 5794 5792 5791 5790 5788 5787 5787 5787 5784 5781 5778
5867 5863 5859 5856 5855 5855 5855 5852 5850 5848 5847 5846 5844 5843 5843 5843 5842 5839 5839 5841 5840 5838 5835 5831 5828 5825 5820 5816 5810 5804 5799 5796 5794 5791 5789 5788 5787 5785 5783 5782 5780 5776
5866 5862 5859 5858 5858 5858 5857 5854 5852 5850 5847 5845 5844 5843 5841 5840 5838 5838 5838 5839 5839 5836 5833 5830 5828 5824 5820 5816 5811 5806 5801 5799 5795 5792 5790 5788 5786 5783 5781 5780 5778 5775